H1 CPF 2 NER 2020 11 29 9 334 01 glonass134 H2 1407501 9134 40315 2020 11 29 0 0 0 2020 12 2 23 45 0 900 1 1 0 0 0 1 H9 10 0 59182 0.00000 0 -22888381.584 542914.107 -11299016.071 10 0 59182 900.00000 0 -24102285.560 411431.834 -8424248.604 10 0 59182 1800.00000 0 -24961293.687 409980.776 -5386348.003 10 0 59182 2700.00000 0 -25438726.906 490183.359 -2244183.812 10 0 59182 3600.00000 0 -25520259.336 599735.701 941406.743 10 0 59182 4500.00000 0 -25204477.002 684857.488 4108787.086 10 0 59182 5400.00000 0 -24502918.909 692802.018 7196701.928 10 0 59182 6300.00000 0 -23439599.500 574321.125 10145448.315 10 0 59182 7200.00000 0 -22050032.957 285981.870 12898015.457 10 0 59182 8100.00000 0 -20379800.014 -207761.879 15401172.587 10 0 59182 9000.00000 0 -18482716.481 -932829.640 17606485.140 10 0 59182 9900.00000 0 -16418678.846 -1904179.315 19471240.816 10 0 59182 10800.00000 0 -14251275.258 -3124933.465 20959268.823 10 0 59182 11700.00000 0 -12045259.660 -4586004.614 22041637.402 10 0 59182 12600.00000 0 -9863992.526 -6266236.930 22697216.652 10 0 59182 13500.00000 0 -7766952.957 -8133060.664 22913095.975 10 0 59182 14400.00000 0 -5807424.265 -10143634.753 22684847.688 10 0 59182 15300.00000 0 -4030448.374 -12246432.773 22016630.850 10 0 59182 16200.00000 0 -2471133.712 -14383209.003 20921131.967 10 0 59182 17100.00000 0 -1153387.019 -16491265.263 19419342.026 10 0 59182 18000.00000 0 -89122.503 -18505925.954 17540172.203 10 0 59182 18900.00000 0 722017.928 -20363119.425 15319913.702 10 0 59182 19800.00000 0 1292420.760 -22001958.406 12801550.242 10 0 59182 20700.00000 0 1645742.663 -23367211.272 10033935.036 10 0 59182 21600.00000 0 1815669.291 -24411559.671 7070847.045 10 0 59182 22500.00000 0 1844243.227 -25097546.239 3969944.360 10 0 59182 23400.00000 0 1779832.002 -25399128.603 791635.203 10 0 59182 24300.00000 0 1674823.118 -25302772.310 -2402110.733 10 0 59182 25200.00000 0 1583145.202 -24808034.926 -5548986.106 10 0 59182 26100.00000 0 1557722.324 -23927615.171 -8587579.288 10 0 59182 27000.00000 0 1647971.771 -22686864.211 -11458591.240 10 0 59182 27900.00000 0 1897453.785 -21122779.446 -14106010.196 10 0 59182 28800.00000 0 2341775.236 -19282523.577 -16478219.333 10 0 59182 29700.00000 0 3006838.082 -17221532.251 -18529014.358 10 0 59182 30600.00000 0 3907508.309 -15001291.099 -20218510.175 10 0 59182 31500.00000 0 5046762.692 -12686876.994 -21513918.400 10 0 59182 32400.00000 0 6415349.892 -10344367.922 -22390180.707 10 0 59182 33300.00000 0 7991980.210 -8038230.915 -22830446.241 10 0 59182 34200.00000 0 9744035.626 -5828797.806 -22826384.776 10 0 59182 35100.00000 0 11628769.637 -3769934.077 -22378330.857 10 0 59182 36000.00000 0 13594945.865 -1906997.206 -21495257.572 10 0 59182 36900.00000 0 15584846.006 -275168.196 -20194581.990 10 0 59182 37800.00000 0 17536562.559 1101776.322 -18501807.480 10 0 59182 38700.00000 0 19386480.211 2212202.815 -16450011.146 10 0 59182 39600.00000 0 21071842.145 3056842.459 -14079187.422 10 0 59182 40500.00000 0 22533294.525 3648489.395 -11435461.392 10 0 59182 41400.00000 0 23717303.606 4011191.183 -8570187.627 10 0 59182 42300.00000 0 24578345.522 4178967.850 -5538952.359 10 0 59182 43200.00000 0 25080778.572 4194115.454 -2400498.338 10 0 59182 44100.00000 0 25200321.129 4105166.874 784407.072 10 0 59182 45000.00000 0 24925074.733 3964596.480 3954139.022 10 0 59182 45900.00000 0 24256050.788 3826365.545 7047395.707 10 0 59182 46800.00000 0 23207179.724 3743411.563 10004370.399 10 0 59182 47700.00000 0 21804802.663 3765186.588 12767893.319 10 0 59182 48600.00000 0 20086666.778 3935347.521 15284522.562 10 0 59182 49500.00000 0 18100465.632 4289694.834 17505564.302 10 0 59182 50400.00000 0 15901984.320 4854445.960 19388003.748 10 0 59182 51300.00000 0 13552925.121 5644915.860 20895330.066 10 0 59182 52200.00000 0 11118502.295 6664660.711 21998240.266 10 0 59182 53100.00000 0 8664904.170 7905121.745 22675208.954 10 0 59182 54000.00000 0 6256725.999 9345785.981 22912913.167 10 0 59182 54900.00000 0 3954478.540 10954859.440 22706503.733 10 0 59182 55800.00000 0 1812274.562 12690427.373 22059717.049 10 0 59182 56700.00000 0 -124211.453 14502055.814 20984823.851 10 0 59182 57600.00000 0 -1819425.946 16332770.270 19502414.260 10 0 59182 58500.00000 0 -3249190.991 18121331.124 17641021.320 10 0 59182 59400.00000 0 -4401478.214 19804712.283 15436588.322 10 0 59182 60300.00000 0 -5276668.905 21320680.394 12931788.287 10 0 59182 61200.00000 0 -5887288.498 22610366.592 10175207.258 10 0 59182 62100.00000 0 -6257225.920 23620722.248 7220406.080 10 0 59182 63000.00000 0 -6420470.335 24306754.174 4124878.331 10 0 59182 63900.00000 0 -6419418.604 24633443.332 948924.805 10 0 59182 64800.00000 0 -6302825.705 24577264.147 -2245532.800 10 0 59182 65700.00000 0 -6123486.081 24127238.303 -5396174.624 10 0 59182 66600.00000 0 -5935745.880 23285476.691 -8441516.158 10 0 59182 67500.00000 0 -5792953.684 22067185.286 -11322126.529 10 0 59182 68400.00000 0 -5744960.157 20500133.827 -13981805.836 10 0 59182 69300.00000 0 -5835774.902 18623609.554 -16368696.647 10 0 59182 70200.00000 0 -6101481.925 16486900.472 -18436306.481 10 0 59182 71100.00000 0 -6568503.652 14147372.735 -20144420.350 10 0 59182 72000.00000 0 -7252288.082 11668224.079 -21459884.951 10 0 59182 72900.00000 0 -8156475.139 9116008.674 -22357249.375 10 0 59182 73800.00000 0 -9272577.502 6558037.959 -22819250.367 10 0 59182 74700.00000 0 -10580188.885 4059766.855 -22837133.664 10 0 59182 75600.00000 0 -12047710.318 1682274.479 -22410806.489 10 0 59182 76500.00000 0 -13633562.968 -520056.104 -21548819.666 10 0 59182 77400.00000 0 -15287835.605 -2501563.551 -20268181.246 10 0 59182 78300.00000 0 -16954296.805 -4226956.846 -18594006.716 10 0 59182 79200.00000 0 -18572686.946 -5672520.527 -16559013.865 10 0 59182 80100.00000 0 -20081193.690 -6826829.039 -14202873.221 10 0 59182 81000.00000 0 -21419007.364 -7690943.425 -11571427.520 10 0 59182 81900.00000 0 -22528849.712 -8278085.152 -8715795.832 10 0 59182 82800.00000 0 -23359370.886 -8612803.479 -5691380.120 10 0 59182 83700.00000 0 -23867315.350 -8729673.696 -2556793.472 10 0 59182 84600.00000 0 -24019367.199 -8671582.749 627269.487 10 0 59182 85500.00000 0 -23793598.810 -8487675.525 3799198.491 10 0 59183 0.00000 0 -23180463.321 -8231048.789 6897647.970 10 0 59183 900.00000 0 -22183289.845 -7956290.074 9862710.287 10 0 59183 1800.00000 0 -20818262.208 -7716964.047 12637059.238 10 0 59183 2700.00000 0 -19113880.303 -7563152.576 15167044.225 10 0 59183 3600.00000 0 -17109927.717 -7539149.897 17403714.369 10 0 59183 4500.00000 0 -14855986.429 -7681409.936 19303754.290 10 0 59183 5400.00000 0 -12409559.381 -8016831.202 20830314.648 10 0 59183 6300.00000 0 -9833876.893 -8561451.371 21953722.338 10 0 59183 7200.00000 0 -7195476.055 -9319606.887 22652057.169 10 0 59183 8100.00000 0 -4561651.422 -10283594.012 22911584.087 10 0 59183 9000.00000 0 -1997880.769 -11433847.324 22727032.294 10 0 59183 9900.00000 0 434668.855 -12739630.433 22101715.024 10 0 59183 10800.00000 0 2681452.523 -14160212.570 21047486.407 10 0 59183 11700.00000 0 4696580.992 -15646484.405 19584534.561 10 0 59183 12600.00000 0 6444491.895 -17142947.794 17741012.972 10 0 59183 13500.00000 0 7901188.748 -18589998.077 15552515.323 10 0 59183 14400.00000 0 9054995.373 -19926404.514 13061401.965 10 0 59183 15300.00000 0 9906793.285 -21091885.191 10315989.532 10 0 59183 16200.00000 0 10469731.390 -22029667.971 7369618.276 10 0 59183 17100.00000 0 10768419.566 -22688928.562 4279614.584 10 0 59183 18000.00000 0 10837639.899 -23027001.247 1106169.004 10 0 59183 18900.00000 0 10720630.391 -23011267.053 -2088847.667 10 0 59183 19800.00000 0 10467014.580 -22620637.308 -5243105.962 10 0 59183 20700.00000 0 10130466.181 -21846567.851 -8295051.349 10 0 59183 21600.00000 0 9766209.578 -20693559.187 -11185123.885 10 0 59183 22500.00000 0 9428464.290 -19179120.120 -13856938.174 10 0 59183 23400.00000 0 9167943.967 -17333195.686 -16258398.617 10 0 59183 24300.00000 0 9029517.984 -15197083.321 -18342726.766 10 0 59183 25200.00000 0 9050136.401 -12821883.274 -20069379.651 10 0 59183 26100.00000 0 9257107.349 -10266549.127 -21404840.623 10 0 59183 27000.00000 0 9666800.298 -7595621.181 -22323267.353 10 0 59183 27900.00000 0 10283830.077 -4876738.455 -22806984.922 10 0 59183 28800.00000 0 11100755.584 -2178034.095 -22846815.339 10 0 59183 29700.00000 0 12098305.012 434476.853 -22442238.384 10 0 59183 30600.00000 0 13246116.999 2899408.692 -21601382.099 10 0 59183 31500.00000 0 14503965.268 5162311.526 -20340844.640 10 0 59183 32400.00000 0 15823414.138 7177678.419 -18685352.386 10 0 59183 33300.00000 0 17149834.419 8910571.781 -16667262.264 10 0 59183 34200.00000 0 18424694.349 10337803.685 -14325919.033 10 0 59183 35100.00000 0 19588029.173 11448623.786 -11706880.889 10 0 59183 36000.00000 0 20580985.795 12244889.117 -8861028.917 10 0 59183 36900.00000 0 21348336.210 12740711.467 -5843578.056 10 0 59183 37800.00000 0 21840855.007 12961599.794 -2713008.768 10 0 59183 38700.00000 0 22017462.220 12943135.743 470060.156 10 0 59183 39600.00000 0 21847042.666 12729239.467 3644036.172 10 0 59183 40500.00000 0 21309866.494 12370099.584 6747533.152 10 0 59183 41400.00000 0 20398552.213 11919854.650 9720545.228 10 0 59183 42300.00000 0 19118532.291 11434123.446 12505592.610 10 0 59183 43200.00000 0 17488001.838 10967487.327 15048818.488 10 0 59183 44100.00000 0 15537351.943 10571029.598 17301017.121 10 0 59183 45000.00000 0 13308110.241 10290034.395 19218574.438 10 0 59183 45900.00000 0 10851431.266 10161940.925 20764304.205 10 0 59183 46800.00000 0 8226197.326 10214638.465 21908164.516 10 0 59183 47700.00000 0 5496806.648 10465173.635 22627841.365 10 0 59183 48600.00000 0 2730738.188 10918924.735 22909188.237 10 0 59183 49500.00000 0 -4008.176 11569278.908 22746512.944 10 0 59183 50400.00000 0 -2641491.820 12397827.379 22142705.362 10 0 59183 51300.00000 0 -5120326.520 13375072.664 21109202.354 10 0 59183 52200.00000 0 -7385988.073 14461620.507 19665788.888 10 0 59183 53100.00000 0 -9392838.862 15609808.793 17840237.300 10 0 59183 54000.00000 0 -11105785.128 16765707.156 15667789.648 10 0 59183 54900.00000 0 -12501497.264 17871404.793 13190491.241 10 0 59183 55800.00000 0 -13569141.334 18867491.136 10456386.679 10 0 59183 56700.00000 0 -14310590.261 19695625.033 7518592.795 10 0 59183 57600.00000 0 -14740104.988 20301083.339 4434265.840 10 0 59183 58500.00000 0 -14883498.572 20635180.037 1263483.144 10 0 59183 59400.00000 0 -14776818.371 20657451.614 -1931938.370 10 0 59183 60300.00000 0 -14464602.587 20337514.097 -5089662.572 10 0 59183 61200.00000 0 -13997786.007 19656511.000 -8148067.759 10 0 59183 62100.00000 0 -13431345.159 18608088.686 -11047467.642 10 0 59183 63000.00000 0 -12821784.631 17198856.162 -13731293.854 10 0 59183 63900.00000 0 -12224573.123 15448308.711 -16147214.919 10 0 59183 64800.00000 0 -11691639.934 13388217.883 -18248168.420 10 0 59183 65700.00000 0 -11269039.622 11061513.419 -19993285.107 10 0 59183 66600.00000 0 -10994884.980 8520704.540 -21348686.358 10 0 59183 67500.00000 0 -10897636.428 5825907.484 -22288139.477 10 0 59183 68400.00000 0 -10994820.196 3042562.678 -22793558.587 10 0 59183 69300.00000 0 -11292228.897 238937.755 -22855342.316 10 0 59183 70200.00000 0 -11783637.191 -2516478.934 -22472542.975 10 0 59183 71100.00000 0 -12451043.182 -5157585.700 -21652865.398 10 0 59183 72000.00000 0 -13265423.833 -7623167.644 -20412496.999 10 0 59183 72900.00000 0 -14187971.057 -9859186.588 -18775773.797 10 0 59183 73800.00000 0 -15171755.110 -11820767.257 -16774690.203 10 0 59183 74700.00000 0 -16163744.211 -13473799.086 -14448263.227 10 0 59183 75600.00000 0 -17107094.729 -14796089.566 -11841764.265 10 0 59183 76500.00000 0 -17943615.369 -15778023.789 -9005833.946 10 0 59183 77400.00000 0 -18616301.841 -16422705.453 -5995497.577 10 0 59183 78300.00000 0 -19071835.926 -16745576.112 -2869100.283 10 0 59183 79200.00000 0 -19262944.686 -16773530.948 312817.744 10 0 59183 80100.00000 0 -19150521.563 -16543569.946 3488684.482 10 0 59183 81000.00000 0 -18705421.211 -16101042.350 6597075.993 10 0 59183 81900.00000 0 -17909853.502 -15497558.776 9577891.108 10 0 59183 82800.00000 0 -16758318.744 -14788658.681 12373499.140 10 0 59183 83700.00000 0 -15258044.992 -14031330.763 14929839.692 10 0 59183 84600.00000 0 -13428908.693 -13281489.558 17197454.606 10 0 59183 85500.00000 0 -11302840.989 -12591513.151 19132433.315 10 0 59184 0.00000 0 -8922742.929 -12007944.249 20697254.522 10 0 59184 900.00000 0 -6340952.340 -11569450.429 21861509.055 10 0 59184 1800.00000 0 -3617324.647 -11305127.661 22602490.147 10 0 59184 2700.00000 0 -817003.604 -11233219.825 22905640.470 10 0 59184 3600.00000 0 1992027.262 -11360306.534 22764846.694 10 0 59184 4500.00000 0 4741513.560 -11680995.728 22182575.194 10 0 59184 5400.00000 0 7365514.632 -12178134.855 21169845.064 10 0 59184 6300.00000 0 9802898.068 -12823533.905 19746037.288 10 0 59184 7200.00000 0 11999641.179 -13579171.940 17938541.874 10 0 59184 8100.00000 0 13910843.948 -14398838.382 15782247.755 10 0 59184 9000.00000 0 15502369.211 -15230141.662 13318883.362 10 0 59184 9900.00000 0 16752040.719 -16016801.703 10596219.074 10 0 59184 10800.00000 0 17650347.999 -16701129.983 7667145.781 10 0 59184 11700.00000 0 18200627.383 -17226592.101 4588646.792 10 0 59184 12600.00000 0 18418710.752 -17540343.418 1420683.153 10 0 59184 13500.00000 0 18332056.368 -17595628.754 -1774985.321 10 0 59184 14400.00000 0 17978398.652 -17353942.485 -4936019.075 10 0 59184 15300.00000 0 17403974.563 -16786855.140 -8000732.446 10 0 59184 16200.00000 0 16661402.888 -15877426.877 -10909315.870 10 0 59184 17100.00000 0 15807307.835 -14621145.916 -13605020.859 10 0 59184 18000.00000 0 14899789.471 -13026350.596 -16035282.662 10 0 59184 18900.00000 0 13995850.060 -11114116.127 -18152757.192 10 0 59184 19800.00000 0 13148886.969 -8917610.216 -19916250.897 10 0 59184 20700.00000 0 12406359.578 -6480944.723 -21291524.788 10 0 59184 21600.00000 0 11807729.594 -3857571.876 -22251957.013 10 0 59184 22500.00000 0 11382761.925 -1108292.866 -22779051.546 10 0 59184 23400.00000 0 11150257.337 1701037.172 -22862784.015 10 0 59184 24300.00000 0 11117269.278 4502011.435 -22501779.227 10 0 59184 25200.00000 0 11278836.304 7226276.479 -21703318.377 10 0 59184 26100.00000 0 11618239.586 9808131.582 -20483177.334 10 0 59184 27000.00000 0 12107772.715 12187015.041 -18865300.598 10 0 59184 27900.00000 0 12709989.546 14309775.190 -16881318.581 10 0 59184 28800.00000 0 13379375.952 16132633.327 -14569918.719 10 0 59184 29700.00000 0 14064373.864 17622759.035 -11976083.475 10 0 59184 30600.00000 0 14709671.603 18759394.747 -9150210.581 10 0 59184 31500.00000 0 15258663.747 19534485.195 -6147132.994 10 0 59184 32400.00000 0 15655977.057 19952788.102 -3025057.566 10 0 59184 33300.00000 0 15849956.639 20031463.812 155557.204 10 0 59184 34200.00000 0 15795008.408 19799163.038 3333162.969 10 0 59184 35100.00000 0 15453700.173 19294652.408 6446301.113 10 0 59184 36000.00000 0 14798533.782 18565036.352 9434778.174 10 0 59184 36900.00000 0 13813314.466 17663650.172 12240815.393 10 0 59184 37800.00000 0 12494060.152 16647712.420 14810151.366 10 0 59184 38700.00000 0 10849412.298 15575834.294 17093077.842 10 0 59184 39600.00000 0 8900530.268 14505489.420 19045389.793 10 0 59184 40500.00000 0 6680472.190 13490548.880 20629232.656 10 0 59184 41400.00000 0 4233086.091 12578983.528 21813831.327 10 0 59184 42300.00000 0 1611455.141 11810828.941 22576087.425 10 0 59184 43200.00000 0 -1124041.080 11216497.577 22901033.567 10 0 59184 44100.00000 0 -3907971.565 10815508.751 22782135.615 10 0 59184 45000.00000 0 -6672314.475 10615690.073 22221436.333 10 0 59184 45900.00000 0 -9349033.573 10612884.745 21229536.450 10 0 59184 46800.00000 0 -11872665.336 10791178.419 19825411.873 10 0 59184 47700.00000 0 -14182810.380 11123637.719 18036068.702 10 0 59184 48600.00000 0 -16226426.000 11573531.146 15896040.705 10 0 59184 49500.00000 0 -17959824.282 12095982.506 13446737.013 10 0 59184 50400.00000 0 -19350291.543 12639988.415 10735651.075 10 0 59184 51300.00000 0 -20377260.328 13150715.319 7815444.946 10 0 59184 52200.00000 0 -21032983.657 13571978.889 4742925.993 10 0 59184 53100.00000 0 -21322681.919 13848800.095 1577935.955 10 0 59184 54000.00000 0 -21264155.505 13929928.244 -1617825.423 10 0 59184 54900.00000 0 -20886879.114 13770222.086 -4782018.098 10 0 59184 55800.00000 0 -20230616.166 13332785.761 -7852895.260 10 0 59184 56700.00000 0 -19343612.701 12590766.654 -10770526.745 10 0 59184 57600.00000 0 -18280448.388 11528736.637 -13477986.458 10 0 59184 58500.00000 0 -17099637.280 10143596.341 -15922478.664 10 0 59184 59400.00000 0 -15861081.581 8444962.725 -18056379.634 10 0 59184 60300.00000 0 -14623487.843 6455022.588 -19838173.214 10 0 59184 61200.00000 0 -13441856.229 4207857.848 -21233261.419 10 0 59184 62100.00000 0 -12365149.762 1748270.979 -22214634.238 10 0 59184 63000.00000 0 -11434242.238 -869839.794 -22763386.122 10 0 59184 63900.00000 0 -10680230.933 -3585486.840 -22869069.950 10 0 59184 64800.00000 0 -10123184.145 -6332896.655 -22529882.903 10 0 59184 65700.00000 0 -9771374.714 -9044014.097 -21752682.042 10 0 59184 66600.00000 0 -9621029.767 -11651102.800 -20552830.831 10 0 59184 67500.00000 0 -9656604.969 -14089333.873 -18953881.039 10 0 59184 68400.00000 0 -9851569.449 -16299255.990 -16987097.554 10 0 59184 69300.00000 0 -10169666.274 -18229045.309 -14690836.434 10 0 59184 70200.00000 0 -10566593.590 -19836443.330 -12109789.182 10 0 59184 71100.00000 0 -10992034.290 -21090304.102 -9294108.455 10 0 59184 72000.00000 0 -11391947.827 -21971688.504 -6298432.555 10 0 59184 72900.00000 0 -11711027.300 -22474462.349 -3180827.688 10 0 59184 73800.00000 0 -11895218.341 -22605375.597 -1668.230 10 0 59184 74700.00000 0 -11894194.178 -22383621.308 3177523.625 10 0 59184 75600.00000 0 -11663683.307 -21839894.417 6295257.096 10 0 59184 76500.00000 0 -11167552.553 -21014990.753 9291248.985 10 0 59184 77400.00000 0 -10379558.549 -19958005.494 12107575.018 10 0 59184 78300.00000 0 -9284694.433 -18724206.408 14689775.324 10 0 59184 79200.00000 0 -7880075.144 -17372670.329 16987893.993 10 0 59184 80100.00000 0 -6175323.658 -15963780.810 18957433.816 10 0 59184 81000.00000 0 -4192440.785 -14556690.395 20560208.984 10 0 59184 81900.00000 0 -1965162.120 -13206852.243 21765080.267 10 0 59184 82800.00000 0 462173.296 -11963723.102 22548559.070 10 0 59184 83700.00000 0 3036198.227 -10868732.623 22895269.002 10 0 59184 84600.00000 0 5696473.805 -9953603.280 22798255.802 10 0 59184 85500.00000 0 8377748.889 -9239091.088 22259138.932 10 0 59185 0.00000 0 11012430.967 -8734200.133 21288100.734 10 0 59185 900.00000 0 13533168.217 -8435904.898 19903711.564 10 0 59185 1800.00000 0 15875436.732 -8329392.575 18132592.886 10 0 59185 2700.00000 0 17980025.923 -8388817.776 16008922.165 10 0 59185 3600.00000 0 19795319.225 -8578537.954 13573787.741 10 0 59185 4500.00000 0 21279273.586 -8854779.556 10874404.233 10 0 59185 5400.00000 0 22401014.400 -9167664.930 7963202.571 10 0 59185 6300.00000 0 23141977.494 -9463514.514 4896811.520 10 0 59185 7200.00000 0 23496548.710 -9687326.329 1734950.520 10 0 59185 8100.00000 0 23472173.108 -9785326.540 -1460743.994 10 0 59185 9000.00000 0 23088928.252 -9707481.130 -4627934.849 10 0 59185 9900.00000 0 22378579.280 -9409860.000 -7704817.461 10 0 59185 10800.00000 0 21383155.999 -8856750.800 -10631344.338 10 0 59185 11700.00000 0 20153112.907 -8022430.437 -13350414.851 10 0 59185 12600.00000 0 18745151.293 -6892517.081 -15809005.088 10 0 59185 13500.00000 0 17219796.995 -5464843.638 -17959214.180 10 0 59185 14400.00000 0 15638837.829 -3749814.499 -19759205.559 10 0 59185 15300.00000 0 14062730.288 -1770229.815 -21174024.078 10 0 59185 16200.00000 0 12548085.993 439415.582 -22176273.069 10 0 59185 17100.00000 0 11145344.258 2834129.017 -22746638.589 10 0 59185 18000.00000 0 9896728.637 5360061.871 -22874251.529 10 0 59185 18900.00000 0 8834572.503 7956527.336 -22556881.819 10 0 59185 19800.00000 0 7980082.525 10558309.229 -21800962.367 10 0 59185 20700.00000 0 7342589.986 13098165.183 -20621443.816 10 0 59185 21600.00000 0 6919318.940 15509419.940 -19041484.406 10 0 59185 22500.00000 0 6695678.359 17728541.189 -17091982.303 10 0 59185 23400.00000 0 6646063.449 19697591.478 -14810960.613 10 0 59185 24300.00000 0 6735130.102 21366455.430 -12242817.922 10 0 59185 25200.00000 0 6919486.894 22694751.152 -9437459.483 10 0 59185 26100.00000 0 7149731.960 23653348.047 -6449326.289 10 0 59185 27000.00000 0 7372748.045 24225429.812 -3336340.955 10 0 59185 27900.00000 0 7534158.614 24407060.305 -158790.577 10 0 59185 28800.00000 0 7580841.661 24207230.515 3021832.094 10 0 59185 29700.00000 0 7463395.726 23647386.243 6144007.430 10 0 59185 30600.00000 0 7138454.864 22760457.388 9147365.751 10 0 59185 31500.00000 0 6570755.854 21589430.030 11973840.374 10 0 59185 32400.00000 0 5734871.163 20185521.074 14568775.855 10 0 59185 33300.00000 0 4616535.063 18606031.306 16881971.270 10 0 59185 34200.00000 0 3213506.967 16911965.620 18868639.584 10 0 59185 35100.00000 0 1535934.902 15165518.557 20490265.803 10 0 59185 36000.00000 0 -393797.575 13427528.643 21715348.298 10 0 59185 36900.00000 0 -2541736.704 11755006.294 22520009.639 10 0 59185 37800.00000 0 -4863510.890 10198837.120 22888465.402 10 0 59185 38700.00000 0 -7305925.050 8801755.390 22813341.758 10 0 59185 39600.00000 0 -9808933.430 7596671.705 22295834.938 10 0 59185 40500.00000 0 -12307911.714 6605424.581 21345708.397 10 0 59185 41400.00000 0 -14736136.370 5838008.487 19981126.086 10 0 59185 42300.00000 0 -17027369.867 5292311.465 18228323.242 10 0 59185 43200.00000 0 -19118445.311 4954374.351 16121119.034 10 0 59185 44100.00000 0 -20951743.132 4799161.839 13700278.534 10 0 59185 45000.00000 0 -22477456.025 4791814.017 11012734.720 10 0 59185 45900.00000 0 -23655546.472 4889326.323 8110684.320 10 0 59185 46800.00000 0 -24457313.335 5042587.210 5050574.254 10 0 59185 47700.00000 0 -24866500.162 5198687.021 1891998.405 10 0 59185 48600.00000 0 -24879896.917 5303399.266 -1303473.338 10 0 59185 49500.00000 0 -24507408.516 5303727.509 -4473509.820 10 0 59185 50400.00000 0 -23771586.508 5150407.840 -7556251.711 10 0 59185 51300.00000 0 -22706643.311 4800258.363 -10491537.055 10 0 59185 52200.00000 0 -21356990.997 4218273.583 -13222093.369 10 0 59185 53100.00000 0 -19775367.248 3379372.662 -15694671.000 10 0 59185 54000.00000 0 -18020628.881 2269725.455 -17861094.083 10 0 59185 54900.00000 0 -16155307.522 887598.738 -19679207.408 10 0 59185 55800.00000 0 -14243031.971 -756314.099 -21113700.045 10 0 59185 56700.00000 0 -12345926.970 -2639094.283 -22136789.591 10 0 59185 57600.00000 0 -10522098.516 -4726321.379 -22728754.179 10 0 59185 58500.00000 0 -8823311.512 -6973288.742 -22878302.733 10 0 59185 59400.00000 0 -7292956.658 -9326659.226 -22582777.517 10 0 59185 60300.00000 0 -5964390.544 -11726491.327 -21848186.493 10 0 59185 61200.00000 0 -4859716.703 -14108550.532 -20689066.338 10 0 59185 62100.00000 0 -3989056.259 -16406809.182 -19128180.315 10 0 59185 63000.00000 0 -3350336.024 -18556030.700 -17196058.160 10 0 59185 63900.00000 0 -2929600.140 -20494330.832 -14930388.117 10 0 59185 64800.00000 0 -2701829.382 -22165610.067 -12375273.796 10 0 59185 65700.00000 0 -2632231.273 -23521757.070 -9580370.876 10 0 59185 66600.00000 0 -2677944.733 -24524532.709 -6599920.823 10 0 59185 67500.00000 0 -2790086.066 -25147057.866 -3491700.400 10 0 59185 68400.00000 0 -2916049.189 -25374844.657 -315907.157 10 0 59185 69300.00000 0 -3001962.911 -25206329.720 2865997.866 10 0 59185 70200.00000 0 -2995201.797 -24652888.739 5992468.483 10 0 59185 71100.00000 0 -2846845.316 -23738332.731 9003050.824 10 0 59185 72000.00000 0 -2513982.360 -22497907.762 11839538.099 10 0 59185 72900.00000 0 -1961764.746 -20976840.047 14447081.564 10 0 59185 73800.00000 0 -1165123.769 -19228486.736 16775237.485 10 0 59185 74700.00000 0 -110077.764 -17312168.730 18778931.084 10 0 59185 75600.00000 0 1205424.686 -15290774.598 20419320.070 10 0 59185 76500.00000 0 2771162.303 -13228233.899 21664542.076 10 0 59185 77400.00000 0 4564815.460 -11186963.571 22490332.192 10 0 59185 78300.00000 0 6552652.297 -9225392.115 22880499.031 10 0 59185 79200.00000 0 8690700.716 -7395663.306 22827249.912 10 0 59185 80100.00000 0 10926360.251 -5741614.120 22331358.238 10 0 59185 81000.00000 0 13200389.589 -4297110.619 21402168.673 10 0 59185 81900.00000 0 15449189.641 -3084811.092 20057438.457 10 0 59185 82800.00000 0 17607289.142 -2115408.606 18323016.076 10 0 59185 83700.00000 0 19609930.685 -1387385.305 16232361.509 10 0 59185 84600.00000 0 21395649.991 -887289.703 13825915.340 10 0 59185 85500.00000 0 22908740.560 -590526.246 11150327.332 99